#timestamp,LO_Frequency,Hit,StdDev 
1504933215.2,286047000.4,N,1.5
1504933235.0,286047001.0,N,1.4
1504933235.9,286047001.0,N,1.3
1504933255.7,286046999.9,N,1.2
1504933275.6,286047001.0,N,1.1
1504933295.4,286047000.3,N,1.0
1504933315.3,286047000.2,N,1.0
1504933335.1,286047002.3,N,1.1
1504933336.0,286047002.3,N,1.1
1504933355.8,286047001.8,N,1.1
1504933375.7,286046999.7,N,1.1
1504933395.5,286047000.3,N,1.1
1504933415.4,286047002.7,N,1.2
1504933435.2,286047002.2,N,1.2
1504933455.0,286047002.0,N,1.2
1504933455.9,286047002.0,N,1.2
1504933475.8,286047002.5,N,1.2
1504933495.6,286047004.3,Y,0.0
1504933515.5,286047000.1,P,0.5
1504933535.3,286047000.7,N,0.4
1504933555.1,286047000.2,N,0.4
1504933575.9,286047000.3,N,0.4
1504933595.7,286047000.0,N,0.4
1504933615.6,286047001.0,N,0.4
1504933635.4,286047002.1,Y,0.0
1504933655.2,286047000.4,P,0.0
1504933675.1,286046999.9,N,0.3
1504933676.0,286046999.9,N,0.3
1504933695.8,286047000.2,N,0.2
1504933715.7,286047001.9,Y,0.0
1504933735.5,286047002.4,P,1.1
1504933755.3,286047000.2,N,1.0
1504933775.2,286046999.9,N,1.0
1504933795.0,286047000.2,N,0.9
1504933795.9,286047000.2,N,0.9
1504933815.7,286046999.9,N,0.8
1504933835.6,286046999.9,N,0.8
1504933855.4,286047002.7,Y,0.0
1504933875.3,286046999.9,P,0.2
1504933895.1,286047001.6,P,0.7
1504933915.8,286047002.6,P,1.1
1504933935.7,286047000.0,N,1.0
1504933955.5,286047001.6,N,1.0
1504933975.4,286046999.9,N,1.0
1504933995.2,286047002.8,N,1.1
1504934015.0,286047001.6,N,1.1
1504934015.9,286047001.6,N,1.0
1504934035.8,286047002.6,N,1.1
1504934055.6,286047001.3,N,1.0
1504934075.4,286047002.2,N,1.0
1504934095.3,286047002.3,N,1.0
1504934115.1,286047002.5,N,1.0
1504934135.9,286047002.0,N,1.0
1504934155.7,286047004.1,Y,0.0
1504934175.5,286047002.7,P,0.6
1504934195.4,286047002.0,P,0.5
1504934215.2,286047003.9,P,0.9
1504934235.1,286047004.4,Y,0.0
1504934236.0,286047004.4,P,0.9
1504934255.8,286047001.2,N,1.3
1504934275.6,286046999.3,N,1.9
1504934295.5,286047000.9,N,1.7
1504934315.3,286047001.1,N,1.6
1504934335.1,286047001.1,N,1.5
1504934355.9,286046999.4,N,1.5
1504934375.7,286046998.3,N,1.7
1504934395.6,286047000.5,N,1.6
1504934415.4,286046998.2,N,1.7
1504934435.2,286046998.8,N,1.7
1504934455.1,286046998.3,N,1.8
1504934456.0,286046998.3,N,1.8
1504934475.8,286046998.3,N,1.8
1504934495.7,286047001.0,N,1.7
1504934515.5,286047000.7,N,1.7
1504934535.3,286047000.2,N,1.6
1504934555.2,286047002.3,N,1.7
1504934575.0,286047002.8,N,1.7
1504934575.9,286047002.8,N,1.8
1504934595.8,286047002.8,N,1.8
1504934615.6,286047000.2,N,1.7
1504934635.4,286046999.9,N,1.7
1504934655.3,286047002.8,N,1.7
1504934675.1,286046999.7,N,1.7
1504934695.9,286047002.4,N,1.7
1504934715.7,286047002.1,N,1.7
1504934735.5,286047000.1,N,1.7
1504934755.4,286047000.9,N,1.7
1504934775.2,286047001.0,N,1.6
1504934795.0,286046999.7,N,1.5
1504934795.9,286046999.7,N,1.5
1504934815.8,286047001.4,N,1.5
1504934835.6,286047003.0,N,1.5
1504934855.5,286047001.4,N,1.5
1504934875.3,286047002.0,N,1.6
1504934895.1,286047001.6,N,1.5
1504934915.9,286047004.8,Y,0.0
1504934935.7,286047003.1,P,1.2
1504934955.6,286047004.1,P,1.4
1504934975.4,286047004.1,N,1.4
1504934995.2,286047002.5,N,1.3
1504935015.1,286047000.0,N,1.6
1504935016.0,286047000.0,N,1.7
1504935035.8,286046998.3,N,2.0
1504935055.7,286046998.4,N,2.1
1504935075.5,286046998.4,N,2.2
1504935095.3,286046999.6,N,2.1
1504935115.2,286046998.6,N,2.1
1504935135.0,286046998.8,N,2.1
1504935135.9,286046998.8,N,2.1
1504935155.7,286046998.9,N,2.0
1504935175.6,286046998.2,N,2.0
1504935195.4,286047000.3,N,2.0
1504935215.3,286047000.0,N,1.9
1504935235.1,286047001.0,N,1.9
1504935236.0,286047001.0,N,1.8
1504935255.8,286047000.8,N,1.8
1504935275.7,286046998.2,N,1.8
1504935295.5,286046998.1,N,1.8
1504935315.4,286046998.8,N,1.8
1504935335.2,286046999.0,N,1.8
1504935355.0,286046998.4,N,1.8
1504935355.9,286046998.4,N,1.8
1504935375.8,286046999.5,N,1.7
1504935395.6,286046999.4,N,1.7
1504935415.4,286046996.8,N,1.8
1504935435.3,286046996.7,N,1.8
1504935455.1,286046999.2,N,1.7
1504935475.9,286046999.2,N,1.5
1504935495.7,286046997.0,N,1.3
1504935515.5,286046998.2,N,1.1
1504935535.4,286046998.1,N,1.1
1504935555.2,286046998.6,N,1.1
1504935575.0,286046997.2,N,1.1
1504935576.0,286046997.2,N,1.1
1504935595.8,286046996.8,N,1.2
1504935615.6,286046998.1,N,1.2
1504935635.5,286046998.5,N,1.2
1504935655.3,286047000.9,N,1.2
1504935675.1,286047000.2,N,1.3
1504935695.9,286047000.5,N,1.3
1504935715.7,286047000.3,N,1.3
1504935735.6,286047000.9,N,1.4
1504935755.4,286046998.2,N,1.3
1504935775.2,286046998.2,N,1.3
1504935795.1,286046998.8,N,1.2
1504935796.0,286046998.8,N,1.2
1504935815.8,286046998.8,N,1.2
1504935835.7,286046998.5,N,1.2
1504935855.5,286046998.6,N,1.2
1504935875.3,286047000.9,N,1.2
1504935895.2,286046998.5,N,1.2
1504935915.0,286047001.1,N,1.3
1504935915.9,286047001.1,N,1.4
1504935935.8,286047001.2,N,1.4
1504935955.6,286047000.4,N,1.4
1504935975.4,286047000.5,N,1.3
1504935995.3,286047000.6,N,1.4
1504936015.1,286047002.6,N,1.5
1504936035.8,286046999.9,N,1.4
1504936055.7,286047000.9,N,1.4
1504936075.5,286047000.6,N,1.4
1504936095.4,286047001.2,N,1.4
1504936115.2,286046998.7,N,1.4
1504936135.0,286046996.5,N,1.4
1504936136.0,286046996.5,N,1.5
1504936155.8,286046998.9,N,1.4
1504936175.6,286046999.2,N,1.4
1504936195.5,286046999.6,N,1.4
1504936215.3,286046999.0,N,1.4
1504936235.1,286046998.3,N,1.4
1504936255.9,286047000.7,N,1.4
1504936275.7,286682706.0,Y,0.0
1504936295.6,286047002.4,P,1.4
1504936315.4,286047002.2,N,1.3
1504936335.3,286047000.1,N,1.2
1504936355.1,286047001.1,N,1.1
1504936356.0,286047001.1,N,1.0
1504936375.8,286047000.8,N,0.9
1504936395.7,286047000.7,N,0.9
1504936415.5,286047000.8,N,0.8
1504936435.3,286047000.7,N,0.8
1504936455.2,286047000.9,N,0.8
1504936475.0,286047000.7,N,0.7
1504936475.9,286047000.7,N,0.7
1504936495.8,286047001.0,N,0.7
1504936515.6,286046999.9,N,0.7
1504936535.4,286047000.7,N,0.7
1504936555.3,286047000.0,N,0.7
1504936575.1,286047000.9,N,0.7
1504936595.9,286046999.9,N,0.7
1504936615.7,286047000.2,N,0.7
1504936635.5,286047000.3,N,0.7
1504936655.4,286047001.0,N,0.7
1504936675.2,286047001.0,N,0.6
1504936695.1,286046999.7,N,0.7
1504936696.0,286046999.7,N,0.7
1504936715.8,286046999.9,N,0.7
1504936735.6,286047000.4,N,0.7
1504936755.5,286047002.6,Y,0.0
1504936775.3,286047002.2,P,0.8
1504936795.2,286047000.9,N,0.7
